Aérodrome :
LOGIN :

S'inscrire | Disclaimer

   EN    FR    IT 

 










Légende :    VFR   VFR Marginal   IFR   IFR Intensif   IFR Très Intensif
Visi : 
Plafond : 
>= 8 km
>= 3000ft
5 à 8 km
1000 à 3000 ft
1500m à 5 km
500 à 1000 ft
800 à 1500m
200 à 500 ft
< 800m
< 200 ft
Symboles :   Orages  Brouillard  Fortes neiges  Fortes précipitations  Vent > 20 kt
SIGMETs :   Divers  Orages  Givrage  Turbulence  Onde Orograph.  Cendres Volcan.







- Altitude de l'aérodrome : 1345 ft
- Code IATA : FRZ


ETHF - Fritzlar

DERNIER METAR :
  • 171720Z 06001KT 9999 SCT280 14/13 Q1019 BLU+

METARs EXPIRÉS :
  • 171620Z 27001KT 9999 FEW260 18/13 Q1019 BLU+

TAF AMD TAF ETHF
Valide du 17 à 14h jusqu'au 17 à 23h UTC


171444Z 1714/1723 17005KT 9999 NSW FEW260
BECMG 1721/1723 VRB02KT 0400 FG FEW005 CANCEL 1530
Pas de NOTAMs connus pour ce terrain.



MET'MAP, la Météo Aéronautique d'un coup d'oeil ! - Copyright ORBIFLY Décembre 2007 - Disclaimer

ORBIFLY MET'MAP TEAM :

Programmation & Développement : Alexandra Zaïnal
Conception & Développement : Baudouin d'Aumeries
Co-Programmation & Développement : Marc-Olivier Méhu
Soutien technique & logistique : Manuel Goepfert

Contact : metmap@orbifly.com




SOURCES & CREDITS :

   NOAA